TSC994 CYYC-KLAS

Flight info

Callsign TSC994
Flight time 2h 21m
Altitude 35000
Route UBVAL Q927 SEKOM DCT DLN DCT PATIO DCT PICHO/N0462F360 DCT STEWW CHOWW4
Aircraft A321/M-SDE3FGHIRWY/LB1

Departure

Time 2026-05-04 22:09
Airport Calgary International Airport (CYYC)

Arrival

Time 2026-05-05 00:30
Airport Harry Reid International Airport (KLAS)
Time Latitude Longitude Altitude Speed Heading
2026-05-04 21:31 51.13089 -113.99781 3556 ft 0 kts 180°
2026-05-04 21:32 51.13085 -113.99782 3559 ft 0 kts 180°
2026-05-04 21:57 51.13097 -113.99781 3559 ft 3 kts 180°
2026-05-04 21:57 51.13117 -113.99781 3558 ft 3 kts 180°
2026-05-04 21:57 51.13134 -113.99782 3557 ft 3 kts 165°
2026-05-04 21:58 51.13150 -113.99793 3557 ft 3 kts 129°
2026-05-04 21:58 51.13160 -113.99819 3559 ft 3 kts 101°
2026-05-04 21:58 51.13161 -113.99843 3557 ft 0 kts 90°
2026-05-04 22:03 51.13161 -113.99828 3559 ft 6 kts 91°
2026-05-04 22:03 51.13161 -113.99693 3560 ft 17 kts 90°
2026-05-04 22:03 51.13160 -113.99548 3560 ft 0 kts 90°
2026-05-04 22:03 51.13160 -113.99544 3560 ft 3 kts 90°
2026-05-04 22:04 51.13107 -113.99446 3560 ft 20 kts 172°
2026-05-04 22:04 51.12969 -113.99443 3560 ft 19 kts 180°
2026-05-04 22:04 51.12846 -113.99445 3557 ft 17 kts 180°
2026-05-04 22:04 51.12717 -113.99446 3557 ft 20 kts 180°
2026-05-04 22:05 51.12582 -113.99443 3559 ft 18 kts 179°
2026-05-04 22:05 51.12455 -113.99444 3558 ft 20 kts 180°
2026-05-04 22:05 51.12316 -113.99445 3560 ft 19 kts 180°
2026-05-04 22:05 51.12177 -113.99445 3560 ft 23 kts 180°
2026-05-04 22:06 51.12022 -113.99446 3560 ft 21 kts 180°
2026-05-04 22:06 51.11881 -113.99447 3557 ft 19 kts 180°
2026-05-04 22:06 51.11796 -113.99446 3557 ft 18 kts 179°
2026-05-04 22:06 51.11667 -113.99445 3557 ft 21 kts 179°
2026-05-04 22:07 51.11494 -113.99445 3560 ft 26 kts 180°
2026-05-04 22:07 51.11321 -113.99445 3560 ft 24 kts 180°
2026-05-04 22:07 51.11164 -113.99447 3560 ft 22 kts 181°
2026-05-04 22:07 51.11038 -113.99393 3560 ft 17 kts 116°
2026-05-04 22:08 51.11033 -113.99217 3561 ft 17 kts 89°
2026-05-04 22:08 51.11062 -113.99048 3564 ft 15 kts 31°
2026-05-04 22:08 51.11161 -113.99039 3560 ft 17 kts 359°
2026-05-04 22:08 51.11457 -113.99039 3564 ft 75 kts
2026-05-04 22:09 51.12174 -113.99038 3560 ft 128 kts
2026-05-04 22:09 51.13209 -113.99046 3659 ft 160 kts
2026-05-04 22:09 51.14283 -113.99079 4490 ft 153 kts 358°
2026-05-04 22:09 51.15371 -113.99153 5165 ft 161 kts 357°
2026-05-04 22:10 51.16520 -113.99230 5406 ft 178 kts 357°
2026-05-04 22:10 51.17838 -113.99296 5548 ft 200 kts
2026-05-04 22:10 51.19231 -113.98601 5728 ft 229 kts 32°
2026-05-04 22:10 51.20193 -113.96399 6129 ft 263 kts 71°
2026-05-04 22:11 51.20142 -113.93399 6810 ft 286 kts 105°
2026-05-04 22:11 51.19014 -113.90746 7536 ft 300 kts 139°
2026-05-04 22:11 51.17116 -113.89336 8291 ft 306 kts 173°
2026-05-04 22:11 51.14985 -113.89343 9096 ft 307 kts 187°
2026-05-04 22:12 51.12843 -113.89513 9909 ft 310 kts 182°
2026-05-04 22:12 51.10642 -113.89496 10336 ft 327 kts 180°
2026-05-04 22:12 51.08286 -113.89398 10498 ft 350 kts 179°
2026-05-04 22:12 51.05778 -113.89275 10774 ft 368 kts 179°
2026-05-04 22:13 51.03193 -113.89164 11382 ft 374 kts 180°
2026-05-04 22:13 51.00577 -113.89079 12049 ft 379 kts 181°
2026-05-04 22:13 50.97920 -113.89017 12712 ft 384 kts 181°
2026-05-04 22:13 50.95229 -113.88977 13349 ft 389 kts 182°
2026-05-04 22:14 50.92505 -113.88949 14007 ft 394 kts 182°
2026-05-04 22:14 50.89745 -113.88922 14560 ft 400 kts 182°
2026-05-04 22:14 50.86945 -113.88888 15103 ft 405 kts 183°
2026-05-04 22:14 50.84107 -113.88848 15643 ft 411 kts 183°
2026-05-04 22:15 50.81238 -113.88805 16176 ft 416 kts 183°
2026-05-04 22:15 50.78323 -113.88758 16717 ft 421 kts 183°
2026-05-04 22:15 50.75380 -113.88710 17226 ft 426 kts 183°
2026-05-04 22:15 50.72394 -113.88662 17719 ft 431 kts 183°
2026-05-04 22:16 50.69417 -113.88616 18216 ft 436 kts 184°
2026-05-04 22:16 50.66324 -113.88565 18680 ft 441 kts 184°
2026-05-04 22:16 50.63250 -113.88450 19126 ft 446 kts 179°
2026-05-04 22:16 50.60156 -113.87715 19561 ft 452 kts 172°
2026-05-04 22:17 50.57057 -113.86753 20022 ft 455 kts 172°
2026-05-04 22:17 50.53939 -113.85787 20474 ft 458 kts 172°
2026-05-04 22:17 50.50800 -113.84820 20943 ft 461 kts 172°
2026-05-04 22:17 50.47645 -113.83858 21388 ft 465 kts 172°
2026-05-04 22:18 50.44456 -113.82896 21849 ft 467 kts 172°
2026-05-04 22:18 50.41256 -113.81932 22296 ft 470 kts 172°
2026-05-04 22:18 50.38032 -113.80957 22734 ft 473 kts 172°
2026-05-04 22:18 50.34789 -113.79975 23168 ft 476 kts 172°
2026-05-04 22:19 50.31563 -113.79000 23597 ft 479 kts 172°
2026-05-04 22:19 50.28247 -113.77996 23966 ft 482 kts 172°
2026-05-04 22:19 50.24953 -113.76995 24325 ft 485 kts 172°
2026-05-04 22:19 50.21670 -113.75998 24672 ft 487 kts 172°
2026-05-04 22:20 50.18297 -113.74980 25028 ft 489 kts 172°
2026-05-04 22:20 50.14943 -113.73977 25371 ft 492 kts 172°
2026-05-04 22:20 50.11567 -113.72971 25710 ft 494 kts 172°
2026-05-04 22:20 50.08184 -113.71962 26046 ft 497 kts 172°
2026-05-04 22:21 50.04821 -113.70958 26381 ft 499 kts 172°
2026-05-04 22:21 50.01406 -113.69941 26731 ft 501 kts 172°
2026-05-04 22:21 49.97970 -113.68919 27069 ft 504 kts 172°
2026-05-04 22:21 49.94523 -113.67893 27388 ft 506 kts 171°
2026-05-04 22:22 49.91058 -113.66862 27720 ft 508 kts 171°
2026-05-04 22:22 49.87583 -113.65828 28049 ft 510 kts 171°
2026-05-04 22:22 49.84088 -113.64783 28356 ft 512 kts 171°
2026-05-04 22:22 49.80590 -113.63742 28655 ft 514 kts 171°
2026-05-04 22:23 49.77066 -113.62700 28955 ft 516 kts 171°
2026-05-04 22:23 49.73543 -113.61661 29267 ft 518 kts 171°
2026-05-04 22:23 49.69994 -113.60614 29574 ft 520 kts 171°
2026-05-04 22:23 49.66436 -113.59563 29873 ft 521 kts 171°
2026-05-04 22:24 49.62880 -113.58516 30283 ft 520 kts 172°
2026-05-04 22:24 49.59326 -113.57524 30640 ft 519 kts 172°
2026-05-04 22:24 49.55769 -113.56596 30997 ft 518 kts 173°
2026-05-04 22:24 49.52212 -113.55712 31345 ft 517 kts 173°
2026-05-04 22:25 49.48660 -113.54845 31709 ft 517 kts 173°
2026-05-04 22:25 49.45109 -113.53972 32065 ft 516 kts 173°
2026-05-04 22:25 49.41573 -113.53089 32423 ft 515 kts 173°
2026-05-04 22:25 49.38040 -113.52195 32773 ft 515 kts 173°
2026-05-04 22:26 49.34506 -113.51291 33137 ft 514 kts 173°
2026-05-04 22:26 49.30983 -113.50382 33501 ft 513 kts 173°
2026-05-04 22:26 49.27458 -113.49475 33853 ft 512 kts 173°
2026-05-04 22:26 49.23947 -113.48579 34192 ft 512 kts 173°
2026-05-04 22:27 49.20446 -113.47686 34506 ft 510 kts 173°
2026-05-04 22:27 49.16946 -113.46792 34813 ft 509 kts 173°
2026-05-04 22:27 49.13448 -113.45901 35038 ft 509 kts 173°
2026-05-04 22:28 49.06490 -113.44140 35096 ft 504 kts 173°
2026-05-04 22:28 48.99592 -113.42409 35091 ft 502 kts 173°
2026-05-04 22:29 48.92752 -113.40694 35094 ft 501 kts 173°
2026-05-04 22:29 48.85801 -113.38962 35082 ft 512 kts 173°
2026-05-04 22:30 48.78751 -113.37204 35082 ft 514 kts 173°
2026-05-04 22:30 48.71696 -113.35441 35086 ft 513 kts 173°
2026-05-04 22:31 48.64652 -113.33695 35080 ft 512 kts 173°
2026-05-04 22:31 48.57624 -113.31951 35076 ft 511 kts 174°
2026-05-04 22:32 48.50604 -113.30212 35076 ft 511 kts 174°
2026-05-04 22:32 48.43605 -113.28489 35081 ft 510 kts 174°
2026-05-04 22:33 48.36598 -113.26772 35072 ft 510 kts 174°
2026-05-04 22:33 48.29595 -113.25065 35085 ft 509 kts 174°
2026-05-04 22:34 48.22605 -113.23356 35087 ft 509 kts 174°
2026-05-04 22:34 48.15621 -113.21652 35065 ft 508 kts 174°
2026-05-04 22:35 48.08658 -113.19953 35071 ft 507 kts 174°
2026-05-04 22:35 48.01693 -113.18258 35075 ft 506 kts 174°
2026-05-04 22:36 47.94742 -113.16593 35075 ft 506 kts 174°
2026-05-04 22:36 47.87794 -113.14926 35072 ft 505 kts 174°
2026-05-04 22:37 47.80864 -113.13253 35071 ft 504 kts 174°
2026-05-04 22:37 47.73942 -113.11591 35063 ft 503 kts 174°
2026-05-04 22:38 47.67034 -113.09951 35068 ft 502 kts 174°
2026-05-04 22:38 47.60180 -113.08327 35060 ft 502 kts 174°
2026-05-04 22:39 47.53290 -113.06675 35052 ft 501 kts 174°
2026-05-04 22:39 47.46408 -113.05015 35053 ft 500 kts 174°
2026-05-04 22:40 47.39544 -113.03393 35050 ft 499 kts 174°
2026-05-04 22:40 47.32687 -113.01798 35051 ft 499 kts 174°
2026-05-04 22:41 47.25842 -113.00196 35054 ft 497 kts 174°
2026-05-04 22:41 47.19016 -112.98591 35058 ft 495 kts 174°
2026-05-04 22:42 47.12221 -112.96992 35062 ft 494 kts 174°
2026-05-04 22:42 47.05437 -112.95403 35041 ft 493 kts 174°
2026-05-04 22:43 46.98667 -112.93845 35041 ft 492 kts 174°
2026-05-04 22:43 46.91902 -112.92277 35027 ft 492 kts 174°
2026-05-04 22:44 46.85137 -112.90699 35017 ft 492 kts 174°
2026-05-04 22:44 46.78370 -112.89125 35011 ft 492 kts 174°
2026-05-04 22:45 46.71600 -112.87577 35007 ft 493 kts 174°
2026-05-04 22:45 46.61438 -112.85261 35012 ft 493 kts 174°
2026-05-04 22:46 46.54658 -112.83701 35016 ft 493 kts 174°
2026-05-04 22:46 46.47870 -112.82146 35000 ft 493 kts 174°
2026-05-04 22:47 46.41092 -112.80602 34994 ft 493 kts 174°
2026-05-04 22:47 46.34305 -112.79057 34995 ft 493 kts 174°
2026-05-04 22:48 46.27520 -112.77515 34994 ft 493 kts 174°
2026-05-04 22:48 46.20742 -112.75981 34996 ft 493 kts 174°
2026-05-04 22:49 46.13964 -112.74452 34995 ft 493 kts 174°
2026-05-04 22:49 46.07236 -112.72940 34994 ft 492 kts 173°
2026-05-04 22:50 46.00467 -112.71424 34995 ft 492 kts 173°
2026-05-04 22:50 45.93700 -112.69908 34997 ft 492 kts 173°
2026-05-04 22:51 45.86949 -112.68398 34992 ft 491 kts 173°
2026-05-04 22:51 45.80189 -112.66900 34982 ft 491 kts 173°
2026-05-04 22:52 45.73439 -112.65397 34960 ft 490 kts 173°
2026-05-04 22:52 45.66713 -112.63903 34920 ft 489 kts 173°
2026-05-04 22:53 45.61117 -112.62675 34918 ft 489 kts 173°
2026-05-04 22:53 45.54392 -112.61205 34920 ft 488 kts 173°
2026-05-04 22:54 45.47690 -112.59722 34902 ft 487 kts 173°
2026-05-04 22:54 45.40979 -112.58241 34909 ft 487 kts 173°
2026-05-04 22:55 45.34285 -112.56768 34928 ft 487 kts 173°
2026-05-04 22:55 45.27590 -112.55316 34934 ft 487 kts 173°
2026-05-04 22:56 45.20858 -112.54671 34937 ft 484 kts 182°
2026-05-04 22:56 45.14120 -112.54654 34926 ft 484 kts 182°
2026-05-04 22:57 45.07389 -112.54646 34904 ft 484 kts 182°
2026-05-04 22:57 45.00659 -112.54625 34878 ft 483 kts 182°
2026-05-04 22:58 44.93935 -112.54599 34854 ft 483 kts 181°
2026-05-04 22:58 44.87207 -112.54567 34840 ft 483 kts 181°
2026-05-04 22:59 44.80486 -112.54554 34840 ft 483 kts 181°
2026-05-04 22:59 44.73759 -112.54547 34842 ft 483 kts 181°
2026-05-04 23:00 44.67070 -112.54517 34832 ft 472 kts 180°
2026-05-04 23:00 44.60658 -112.54477 34830 ft 460 kts 180°
2026-05-04 23:01 44.54279 -112.54454 34827 ft 457 kts 180°
2026-05-04 23:01 44.47881 -112.54437 34819 ft 456 kts 180°
2026-05-04 23:02 44.41579 -112.54418 34813 ft 456 kts 180°
2026-05-04 23:02 44.35239 -112.54393 34805 ft 455 kts 180°
2026-05-04 23:03 44.28905 -112.54360 34795 ft 455 kts 180°
2026-05-04 23:03 44.22566 -112.54339 34786 ft 455 kts 180°
2026-05-04 23:04 44.16239 -112.54314 34779 ft 455 kts 180°
2026-05-04 23:04 44.09916 -112.54298 34778 ft 454 kts 181°
2026-05-04 23:05 44.03605 -112.54276 34767 ft 454 kts 181°
2026-05-04 23:05 43.97292 -112.54249 34755 ft 453 kts 181°
2026-05-04 23:06 43.90979 -112.54229 34759 ft 453 kts 181°
2026-05-04 23:06 43.84677 -112.54201 34755 ft 453 kts 181°
2026-05-04 23:07 43.78373 -112.54180 34749 ft 453 kts 182°
2026-05-04 23:07 43.72077 -112.54162 34754 ft 452 kts 182°
2026-05-04 23:08 43.65787 -112.54147 34750 ft 452 kts 182°
2026-05-04 23:08 43.59491 -112.54120 34752 ft 452 kts 182°
2026-05-04 23:09 43.53200 -112.54092 34752 ft 452 kts 182°
2026-05-04 23:09 43.46918 -112.54069 34753 ft 452 kts 182°
2026-05-04 23:10 43.40631 -112.54051 34747 ft 451 kts 182°
2026-05-04 23:10 43.34357 -112.54026 34746 ft 451 kts 182°
2026-05-04 23:11 43.28085 -112.54003 34744 ft 451 kts 182°
2026-05-04 23:11 43.21812 -112.53991 34759 ft 450 kts 182°
2026-05-04 23:12 43.15556 -112.53975 34772 ft 450 kts 182°
2026-05-04 23:12 43.09300 -112.53948 34782 ft 449 kts 182°
2026-05-04 23:13 43.03059 -112.53919 34784 ft 448 kts 182°
2026-05-04 23:13 42.96865 -112.53910 34801 ft 448 kts 182°
2026-05-04 23:14 42.90642 -112.53885 34802 ft 447 kts 182°
2026-05-04 23:14 42.84423 -112.53855 34803 ft 447 kts 182°
2026-05-04 23:15 42.78212 -112.53829 34797 ft 446 kts 182°
2026-05-04 23:15 42.72009 -112.53803 34775 ft 445 kts 182°
2026-05-04 23:16 42.65811 -112.53788 34768 ft 445 kts 182°
2026-05-04 23:16 42.59621 -112.53773 34758 ft 445 kts 182°
2026-05-04 23:17 42.53438 -112.53758 34753 ft 444 kts 182°
2026-05-04 23:17 42.47264 -112.53733 34737 ft 444 kts 182°
2026-05-04 23:18 42.41091 -112.53711 34745 ft 443 kts 182°
2026-05-04 23:18 42.34924 -112.53689 34741 ft 443 kts 182°
2026-05-04 23:19 42.28767 -112.53671 34734 ft 442 kts 182°
2026-05-04 23:19 42.22620 -112.53645 34726 ft 442 kts 182°
2026-05-04 23:20 42.16472 -112.53619 34728 ft 441 kts 182°
2026-05-04 23:20 42.10370 -112.53605 34720 ft 441 kts 182°
2026-05-04 23:21 42.04235 -112.53585 34717 ft 441 kts 182°
2026-05-04 23:21 41.98068 -112.53558 34712 ft 440 kts 182°
2026-05-04 23:22 41.91949 -112.53537 34708 ft 440 kts 182°
2026-05-04 23:22 41.85829 -112.53518 34706 ft 439 kts 182°
2026-05-04 23:23 41.79764 -112.53501 34701 ft 439 kts 182°
2026-05-04 23:23 41.73657 -112.53483 34701 ft 438 kts 182°
2026-05-04 23:24 41.67559 -112.53458 34695 ft 438 kts 182°
2026-05-04 23:24 41.61464 -112.53434 34695 ft 438 kts 182°
2026-05-04 23:25 41.55374 -112.53418 34697 ft 437 kts 182°
2026-05-04 23:25 41.49296 -112.53401 34697 ft 437 kts 182°
2026-05-04 23:26 41.43213 -112.53387 34697 ft 436 kts 182°
2026-05-04 23:26 41.37144 -112.53360 34702 ft 436 kts 182°
2026-05-04 23:27 41.31083 -112.53347 34701 ft 435 kts 182°
2026-05-04 23:27 41.25028 -112.53345 34707 ft 435 kts 184°
2026-05-04 23:28 41.18988 -112.53545 34709 ft 433 kts 185°
2026-05-04 23:28 41.12969 -112.53846 34707 ft 433 kts 185°
2026-05-04 23:29 41.06957 -112.54116 34705 ft 432 kts 185°
2026-05-04 23:29 41.00950 -112.54348 34699 ft 432 kts 185°
2026-05-04 23:30 40.94982 -112.54567 34697 ft 431 kts 185°
2026-05-04 23:30 40.88946 -112.54794 34721 ft 431 kts 185°
2026-05-04 23:31 40.82954 -112.55025 34755 ft 430 kts 185°
2026-05-04 23:31 40.76975 -112.55259 34781 ft 430 kts 185°
2026-05-04 23:32 40.71012 -112.55492 34820 ft 427 kts 188°
2026-05-04 23:32 40.65083 -112.55724 34830 ft 425 kts 188°
2026-05-04 23:33 40.59218 -112.55952 34822 ft 424 kts 188°
2026-05-04 23:33 40.53335 -112.56174 34810 ft 423 kts 188°
2026-05-04 23:34 40.47453 -112.56395 34786 ft 422 kts 188°
2026-05-04 23:34 40.41586 -112.56619 34762 ft 421 kts 188°
2026-05-04 23:35 40.35733 -112.56843 34738 ft 421 kts 188°
2026-05-04 23:35 40.29881 -112.57071 34746 ft 420 kts 188°
2026-05-04 23:36 40.24040 -112.57298 34750 ft 420 kts 188°
2026-05-04 23:36 40.18195 -112.57527 34749 ft 420 kts 188°
2026-05-04 23:37 40.12361 -112.57753 34742 ft 419 kts 188°
2026-05-04 23:37 40.06531 -112.57968 34736 ft 419 kts 188°
2026-05-04 23:38 40.00709 -112.58184 34723 ft 419 kts 189°
2026-05-04 23:38 39.94981 -112.58935 34703 ft 407 kts 201°
2026-05-04 23:39 39.89545 -112.60931 34704 ft 406 kts 202°
2026-05-04 23:39 39.84107 -112.62902 34698 ft 406 kts 202°
2026-05-04 23:40 39.78663 -112.64865 34696 ft 406 kts 202°
2026-05-04 23:40 39.74142 -112.66499 34700 ft 406 kts 202°
2026-05-04 23:41 39.68713 -112.68463 34715 ft 405 kts 202°
2026-05-04 23:41 39.62397 -112.70745 34747 ft 405 kts 202°
2026-05-04 23:42 39.56971 -112.72708 34762 ft 405 kts 202°
2026-05-04 23:42 39.52416 -112.74349 34777 ft 405 kts 202°
2026-05-04 23:43 39.46986 -112.76295 34789 ft 405 kts 202°
2026-05-04 23:43 39.41561 -112.78240 34780 ft 405 kts 202°
2026-05-04 23:44 39.36133 -112.80178 34777 ft 404 kts 202°
2026-05-04 23:44 39.30707 -112.82111 34770 ft 404 kts 202°
2026-05-04 23:45 39.25296 -112.84043 34758 ft 403 kts 202°
2026-05-04 23:45 39.19888 -112.85972 34746 ft 402 kts 202°
2026-05-04 23:46 39.14533 -112.87879 34740 ft 402 kts 202°
2026-05-04 23:46 39.09114 -112.89798 34746 ft 401 kts 202°
2026-05-04 23:47 39.03781 -112.91685 34749 ft 399 kts 202°
2026-05-04 23:47 38.98430 -112.93573 34750 ft 398 kts 202°
2026-05-04 23:48 38.93096 -112.95462 34755 ft 397 kts 202°
2026-05-04 23:48 38.87778 -112.97342 34754 ft 395 kts 202°
2026-05-04 23:49 38.82485 -112.99196 34757 ft 393 kts 202°
2026-05-04 23:49 38.77222 -113.01050 34759 ft 392 kts 203°
2026-05-04 23:50 38.71971 -113.02885 34785 ft 390 kts 203°
2026-05-04 23:50 38.66749 -113.04721 34811 ft 388 kts 203°
2026-05-04 23:51 38.61553 -113.06545 34827 ft 386 kts 204°
2026-05-04 23:51 38.56391 -113.08357 34849 ft 384 kts 204°
2026-05-04 23:52 38.51250 -113.10149 34866 ft 382 kts 204°
2026-05-04 23:52 38.46134 -113.11930 34866 ft 380 kts 204°
2026-05-04 23:53 38.41053 -113.13702 34861 ft 378 kts 204°
2026-05-04 23:53 38.35958 -113.15472 34854 ft 376 kts 204°
2026-05-04 23:54 38.30957 -113.17204 34839 ft 374 kts 204°
2026-05-04 23:54 38.25961 -113.18931 34822 ft 371 kts 205°
2026-05-04 23:55 38.20989 -113.20652 34801 ft 369 kts 205°
2026-05-04 23:56 38.13581 -113.23214 34771 ft 367 kts 205°
2026-05-04 23:56 38.08667 -113.24910 34765 ft 366 kts 205°
2026-05-04 23:57 38.03766 -113.26601 34771 ft 364 kts 205°
2026-05-04 23:57 37.98882 -113.28278 34794 ft 363 kts 205°
2026-05-04 23:58 37.94007 -113.29953 34816 ft 362 kts 205°
2026-05-04 23:58 37.89154 -113.31617 34838 ft 361 kts 205°
2026-05-04 23:59 37.84307 -113.33272 34853 ft 360 kts 205°
2026-05-04 23:59 37.79479 -113.34927 34861 ft 359 kts 205°
2026-05-05 00:00 37.74666 -113.36569 34871 ft 358 kts 205°
2026-05-05 00:00 37.69865 -113.38205 34866 ft 357 kts 205°
2026-05-05 00:01 37.65073 -113.39840 34850 ft 356 kts 205°
2026-05-05 00:01 37.60288 -113.41468 34836 ft 356 kts 205°
2026-05-05 00:02 37.55519 -113.43087 34821 ft 355 kts 205°
2026-05-05 00:02 37.50758 -113.44707 34802 ft 354 kts 206°
2026-05-05 00:03 37.46004 -113.46320 34789 ft 354 kts 205°
2026-05-05 00:03 37.41259 -113.47918 34788 ft 353 kts 205°
2026-05-05 00:04 37.36526 -113.49517 34790 ft 351 kts 205°
2026-05-05 00:04 37.31815 -113.51109 34802 ft 350 kts 205°
2026-05-05 00:05 37.27112 -113.52696 34816 ft 350 kts 206°
2026-05-05 00:05 37.22604 -113.54686 34825 ft 338 kts 213°
2026-05-05 00:06 37.18342 -113.57186 34829 ft 338 kts 213°
2026-05-05 00:06 37.14088 -113.59679 34838 ft 337 kts 213°
2026-05-05 00:07 37.09832 -113.62168 34842 ft 337 kts 213°
2026-05-05 00:07 37.05599 -113.64637 34349 ft 334 kts 213°
2026-05-05 00:07 37.03507 -113.65854 33302 ft 330 kts 213°
2026-05-05 00:08 37.01397 -113.67092 31973 ft 343 kts 213°
2026-05-05 00:08 36.99203 -113.68389 30844 ft 356 kts 213°
2026-05-05 00:08 36.96929 -113.69729 29964 ft 364 kts 212°
2026-05-05 00:08 36.94625 -113.71076 29135 ft 367 kts 212°
2026-05-05 00:09 36.92312 -113.72423 28382 ft 367 kts 212°
2026-05-05 00:09 36.90000 -113.73764 27688 ft 367 kts 211°
2026-05-05 00:09 36.87689 -113.75104 27004 ft 366 kts 211°
2026-05-05 00:09 36.85380 -113.76442 26365 ft 365 kts 211°
2026-05-05 00:10 36.83081 -113.77777 25734 ft 364 kts 210°
2026-05-05 00:10 36.80783 -113.79115 25123 ft 364 kts 210°
2026-05-05 00:10 36.78492 -113.80449 24497 ft 364 kts 210°
2026-05-05 00:10 36.76198 -113.81782 23904 ft 364 kts 209°
2026-05-05 00:11 36.73900 -113.83115 23320 ft 364 kts 209°
2026-05-05 00:11 36.71607 -113.84446 22660 ft 363 kts 209°
2026-05-05 00:11 36.69324 -113.85771 22077 ft 361 kts 208°
2026-05-05 00:11 36.67058 -113.87084 21532 ft 358 kts 208°
2026-05-05 00:12 36.64810 -113.88385 20994 ft 355 kts 208°
2026-05-05 00:12 36.62584 -113.89673 20477 ft 352 kts 208°
2026-05-05 00:12 36.60393 -113.91001 19960 ft 347 kts 213°
2026-05-05 00:12 36.58473 -113.92772 19464 ft 342 kts 224°
2026-05-05 00:13 36.56915 -113.94988 18977 ft 339 kts 232°
2026-05-05 00:13 36.55478 -113.97309 18489 ft 337 kts 232°
2026-05-05 00:13 36.54049 -113.99609 17999 ft 336 kts 232°
2026-05-05 00:13 36.52625 -114.01902 17440 ft 334 kts 231°
2026-05-05 00:14 36.51211 -114.04184 16952 ft 332 kts 231°
2026-05-05 00:14 36.49803 -114.06453 16422 ft 331 kts 231°
2026-05-05 00:14 36.48400 -114.08711 15985 ft 330 kts 231°
2026-05-05 00:14 36.46997 -114.10971 15887 ft 330 kts 231°
2026-05-05 00:15 36.45589 -114.13233 15895 ft 332 kts 231°
2026-05-05 00:15 36.44190 -114.15473 15893 ft 320 kts 231°
2026-05-05 00:15 36.42862 -114.17599 15893 ft 304 kts 231°
2026-05-05 00:15 36.41599 -114.19625 15890 ft 292 kts 231°
2026-05-05 00:16 36.40361 -114.21606 15891 ft 290 kts 231°
2026-05-05 00:16 36.39130 -114.23579 15761 ft 287 kts 231°
2026-05-05 00:16 36.37901 -114.25525 15356 ft 286 kts 231°
2026-05-05 00:16 36.36672 -114.27458 14965 ft 285 kts 231°
2026-05-05 00:17 36.35446 -114.29382 14586 ft 284 kts 230°
2026-05-05 00:17 36.34220 -114.31299 14193 ft 284 kts 230°
2026-05-05 00:17 36.32994 -114.33217 13844 ft 283 kts 230°
2026-05-05 00:17 36.31775 -114.35122 13473 ft 282 kts 230°
2026-05-05 00:18 36.30556 -114.37028 13086 ft 281 kts 230°
2026-05-05 00:18 36.29344 -114.38921 12709 ft 279 kts 230°
2026-05-05 00:18 36.28141 -114.40796 12350 ft 278 kts 230°
2026-05-05 00:18 36.26941 -114.42669 11971 ft 277 kts 230°
2026-05-05 00:19 36.25749 -114.44535 11619 ft 276 kts 230°
2026-05-05 00:19 36.24555 -114.46392 11240 ft 275 kts 230°
2026-05-05 00:19 36.23359 -114.48232 10886 ft 273 kts 229°
2026-05-05 00:19 36.22167 -114.50058 10518 ft 272 kts 229°
2026-05-05 00:20 36.20976 -114.51880 10164 ft 271 kts 229°
2026-05-05 00:20 36.19793 -114.53688 9838 ft 270 kts 229°
2026-05-05 00:20 36.18612 -114.55493 9465 ft 269 kts 229°
2026-05-05 00:20 36.17439 -114.57287 9079 ft 268 kts 229°
2026-05-05 00:21 36.16265 -114.59084 8738 ft 267 kts 229°
2026-05-05 00:21 36.15104 -114.60864 8378 ft 266 kts 229°
2026-05-05 00:21 36.13942 -114.62639 8042 ft 264 kts 229°
2026-05-05 00:21 36.12792 -114.64393 7926 ft 263 kts 229°
2026-05-05 00:22 36.11655 -114.66125 7938 ft 258 kts 229°
2026-05-05 00:22 36.10550 -114.67813 7955 ft 240 kts 229°
2026-05-05 00:22 36.09555 -114.69334 7952 ft 221 kts 229°
2026-05-05 00:22 36.08623 -114.70758 7958 ft 208 kts 229°
2026-05-05 00:23 36.07757 -114.72175 7964 ft 207 kts 239°
2026-05-05 00:23 36.07326 -114.73880 7911 ft 212 kts 261°
2026-05-05 00:23 36.07311 -114.75705 7689 ft 211 kts 265°
2026-05-05 00:23 36.07325 -114.77512 7425 ft 210 kts 265°
2026-05-05 00:24 36.07330 -114.78732 7264 ft 210 kts 265°
2026-05-05 00:24 36.07336 -114.80526 7003 ft 208 kts 265°
2026-05-05 00:24 36.07340 -114.82305 6730 ft 206 kts 265°
2026-05-05 00:24 36.07344 -114.84068 6480 ft 204 kts 265°
2026-05-05 00:25 36.07347 -114.85811 6216 ft 202 kts 265°
2026-05-05 00:25 36.07350 -114.87545 5958 ft 202 kts 266°
2026-05-05 00:25 36.07353 -114.89263 5691 ft 198 kts 267°
2026-05-05 00:25 36.07355 -114.90961 5433 ft 197 kts 266°
2026-05-05 00:26 36.07357 -114.92653 5172 ft 197 kts 265°
2026-05-05 00:26 36.07359 -114.94346 4915 ft 197 kts 265°
2026-05-05 00:26 36.07361 -114.96030 4674 ft 193 kts 265°
2026-05-05 00:26 36.07364 -114.97623 4441 ft 176 kts 266°
2026-05-05 00:27 36.07367 -114.99025 4226 ft 154 kts 265°
2026-05-05 00:27 36.07367 -115.00316 4018 ft 147 kts 265°
2026-05-05 00:27 36.07366 -115.01565 3836 ft 145 kts 264°
2026-05-05 00:27 36.07366 -115.02809 3651 ft 144 kts 264°
2026-05-05 00:28 36.07366 -115.04034 3474 ft 143 kts 264°
2026-05-05 00:28 36.07366 -115.05263 3281 ft 142 kts 264°
2026-05-05 00:28 36.07366 -115.06490 3099 ft 143 kts 263°
2026-05-05 00:28 36.07366 -115.07716 2898 ft 142 kts 263°
2026-05-05 00:29 36.07375 -115.08940 2709 ft 141 kts 263°
2026-05-05 00:29 36.07369 -115.10163 2594 ft 143 kts 261°
2026-05-05 00:29 36.07365 -115.11391 2403 ft 143 kts 265°
2026-05-05 00:29 36.07372 -115.12595 2220 ft 138 kts 263°
2026-05-05 00:30 36.07360 -115.13706 2187 ft 112 kts 269°
2026-05-05 00:30 36.07361 -115.14412 2192 ft 56 kts 270°
2026-05-05 00:30 36.07374 -115.14723 2190 ft 29 kts 276°
2026-05-05 00:30 36.07429 -115.14959 2191 ft 29 kts 298°
2026-05-05 00:31 36.07477 -115.15060 2190 ft 0 kts 306°
2026-05-05 00:32 36.07496 -115.15088 2188 ft 9 kts 311°
2026-05-05 00:32 36.07565 -115.15150 2191 ft 16 kts 333°
2026-05-05 00:32 36.07682 -115.15219 2190 ft 21 kts 334°
2026-05-05 00:33 36.07814 -115.15297 2190 ft 18 kts 337°
2026-05-05 00:33 36.07876 -115.15241 2188 ft 11 kts 80°
2026-05-05 00:33 36.07877 -115.15131 2188 ft 13 kts 90°
2026-05-05 00:33 36.07874 -115.15025 2192 ft 11 kts 94°
2026-05-05 00:34 36.07866 -115.14922 2188 ft 14 kts 95°
2026-05-05 00:34 36.07857 -115.14796 2190 ft 13 kts 95°
2026-05-05 00:34 36.07851 -115.14692 2188 ft 13 kts 94°
2026-05-05 00:34 36.07840 -115.14551 2190 ft 20 kts 95°
2026-05-05 00:35 36.07829 -115.14375 2188 ft 19 kts 96°
2026-05-05 00:35 36.07825 -115.14225 2188 ft 15 kts 86°
2026-05-05 00:35 36.07883 -115.14160 2189 ft 11 kts
2026-05-05 00:35 36.07946 -115.14158 2190 ft 10 kts
2026-05-05 00:36 36.08039 -115.14159 2188 ft 17 kts 359°
2026-05-05 00:36 36.08172 -115.14159 2190 ft 19 kts 360°
2026-05-05 00:36 36.08289 -115.14159 2189 ft 15 kts 360°
2026-05-05 00:36 36.08388 -115.14124 2190 ft 17 kts 41°
2026-05-05 00:37 36.08449 -115.14020 2190 ft 13 kts 85°
2026-05-05 00:37 36.08446 -115.13924 2188 ft 9 kts 92°
2026-05-05 00:37 36.08459 -115.13858 2188 ft 6 kts 45°
2026-05-05 00:37 36.08487 -115.13847 2189 ft 3 kts
2026-05-05 00:38 36.08499 -115.13846 2190 ft 1 kts
2026-05-05 00:38 36.08521 -115.13846 2188 ft 2 kts
2026-05-05 00:38 36.08527 -115.13846 2189 ft 0 kts
2026-05-05 00:38 36.08529 -115.13846 2189 ft 0 kts